When you browse on this site, cookies collect data to enhance your experience and personalize the content and advertising you see.
Visit our Privacy Policy to learn more. By continuing to use the site, you agree to this use of cookies and data.
  • In Österreich
  • Länderverzeichnis
  • Für 7 Tage
  • Wassertemperatur
  • Satellitenkarten
  • Wetterkarte
  • News
  • Widgets
  • user-avatar
    Anmelden

    Stündliche Wetter Mulhule

    Heute, 18 Januar, Freitag

    Zeit Temperatur Niederschläge Wind Luftdruck Luftfeuchtigkeit
    00:00 +26°C° 0 mm 1 m/S 760 mmHg 72%
    01:00 +26°C° 0 mm 1 m/S 760 mmHg 73%
    02:00 +26°C° 0 mm 1 m/S 760 mmHg 74%
    03:00 +23°C° 0 mm 0 m/S 760 mmHg 76%
    04:00 +25°C° 0 mm 1 m/S 760 mmHg 76%
    05:00 +25°C° 0 mm 1 m/S 760 mmHg 75%
    06:00 +25°C° 0 mm 2 m/S 760 mmHg 74%
    07:00 +26°C° 0 mm 2 m/S 761 mmHg 71%
    08:00 +27°C° 0 mm 2 m/S 761 mmHg 68%
    09:00 +28°C° 0 mm 2 m/S 761 mmHg 64%
    10:00 +29°C° 0 mm 2 m/S 761 mmHg 60%
    11:00 +30°C° 0 mm 2 m/S 761 mmHg 56%
    12:00 +31°C° 0 mm 3 m/S 761 mmHg 52%
    13:00 +31°C° 0 mm 3 m/S 760 mmHg 52%
    14:00 +33°C° 0 mm 3 m/S 759 mmHg 52%
    15:00 +33°C° 0 mm 4 m/S 759 mmHg 52%
    16:00 +31°C° 0 mm 3 m/S 759 mmHg 56%
    17:00 +30°C° 0 mm 3 m/S 759 mmHg 61%
    18:00 +29°C° 0 mm 2 m/S 759 mmHg 65%
    19:00 +29°C° 0 mm 2 m/S 759 mmHg 68%
    20:00 +28°C° 0 mm 2 m/S 759 mmHg 71%
    21:00 +28°C° 0 mm 2 m/S 760 mmHg 73%
    22:00 +28°C° 0 mm 3 m/S 760 mmHg 75%
    23:00 +27°C° 0 mm 3 m/S 760 mmHg 77%

    Morgen, 19 Januar, Samstag

    Zeit Temperatur Niederschläge Wind Luftdruck Luftfeuchtigkeit
    00:00 +27°C° 0 mm 3 m/S 760 mmHg 79%
    01:00 +27°C° 0 mm 3 m/S 760 mmHg 80%
    02:00 +26°C° 0 mm 3 m/S 760 mmHg 81%
    03:00 +26°C° 0 mm 2 m/S 760 mmHg 82%
    04:00 +26°C° 0 mm 2 m/S 760 mmHg 83%
    05:00 +26°C° 0 mm 2 m/S 760 mmHg 84%
    06:00 +26°C° 0 mm 2 m/S 760 mmHg 85%
    07:00 +26°C° 0 mm 3 m/S 761 mmHg 80%
    08:00 +27°C° 0 mm 3 m/S 761 mmHg 74%
    09:00 +28°C° 0 mm 4 m/S 762 mmHg 69%
    10:00 +29°C° 0 mm 5 m/S 762 mmHg 64%
    11:00 +30°C° 0 mm 5 m/S 761 mmHg 59%
    12:00 +32°C° 0 mm 6 m/S 761 mmHg 54%
    13:00 +32°C° 0 mm 6 m/S 760 mmHg 53%
    14:00 +32°C° 0 mm 6 m/S 760 mmHg 52%
    15:00 +32°C° 0 mm 7 m/S 759 mmHg 51%
    16:00 +32°C° 0 mm 7 m/S 759 mmHg 54%
    17:00 +30°C° 0 mm 6 m/S 759 mmHg 57%
    18:00 +29°C° 0 mm 6 m/S 759 mmHg 60%
    19:00 +28°C° 0 mm 6 m/S 760 mmHg 62%
    20:00 +28°C° 0 mm 6 m/S 761 mmHg 64%
    21:00 +28°C° 0 mm 6 m/S 761 mmHg 66%
    22:00 +27°C° 0 mm 6 m/S 761 mmHg 67%
    23:00 +27°C° 0 mm 6 m/S 761 mmHg 68%

    übermorgen, 20 Januar, Sonntag

    Zeit Temperatur Niederschläge Wind Luftdruck Luftfeuchtigkeit
    00:00 +27°C° 0 mm 6 m/S 761 mmHg 70%
    01:00 +27°C° 0 mm 6 m/S 761 mmHg 71%
    02:00 +26°C° 0 mm 6 m/S 761 mmHg 72%
    03:00 +26°C° 0 mm 6 m/S 760 mmHg 74%
    04:00 +26°C° 0 mm 6 m/S 761 mmHg 75%
    05:00 +26°C° 0 mm 5 m/S 761 mmHg 76%
    06:00 +25°C° 0 mm 5 m/S 761 mmHg 77%
    07:00 +26°C° 0 mm 6 m/S 762 mmHg 73%
    08:00 +27°C° 0 mm 6 m/S 763 mmHg 68%
    09:00 +28°C° 0 mm 7 m/S 763 mmHg 64%
    10:00 +29°C° 0 mm 7 m/S 763 mmHg 61%
    11:00 +30°C° 0 mm 7 m/S 763 mmHg 58%
    12:00 +32°C° 0 mm 7 m/S 762 mmHg 55%
    13:00 +32°C° 0 mm 8 m/S 761 mmHg 55%
    14:00 +32°C° 0 mm 8 m/S 761 mmHg 55%
    15:00 +32°C° 0 mm 8 m/S 760 mmHg 56%
    16:00 +31°C° 0 mm 8 m/S 760 mmHg 59%
    17:00 +29°C° 0 mm 8 m/S 760 mmHg 63%
    18:00 +28°C° 0 mm 8 m/S 760 mmHg 66%
    19:00 +28°C° 0 mm 8 m/S 761 mmHg 68%
    20:00 +28°C° 0 mm 8 m/S 761 mmHg 69%
    21:00 +27°C° 0 mm 8 m/S 762 mmHg 70%
    22:00 +27°C° 0 mm 8 m/S 762 mmHg 72%
    23:00 +27°C° 0 mm 8 m/S 762 mmHg 73%

    21 Januar, Montag

    Zeit Temperatur Niederschläge Wind Luftdruck Luftfeuchtigkeit
    00:00 +27°C° 0 mm 8 m/S 762 mmHg 75%
    01:00 +26°C° 0 mm 8 m/S 761 mmHg 76%
    02:00 +26°C° 0 mm 8 m/S 761 mmHg 77%
    03:00 +26°C° 0 mm 8 m/S 760 mmHg 79%
    04:00 +26°C° 0 mm 7 m/S 761 mmHg 79%
    05:00 +26°C° 0 mm 7 m/S 761 mmHg 79%
    06:00 +26°C° 0 mm 7 m/S 761 mmHg 80%
    07:00 +27°C° 0 mm 7 m/S 762 mmHg 75%
    08:00 +28°C° 0 mm 8 m/S 763 mmHg 71%
    09:00 +29°C° 0 mm 8 m/S 763 mmHg 67%
    10:00 +31°C° 0 mm 8 m/S 763 mmHg 62%
    11:00 +31°C° 0 mm 8 m/S 762 mmHg 58%
    12:00 +32°C° 0 mm 9 m/S 762 mmHg 54%
    13:00 +32°C° 0 mm 9 m/S 761 mmHg 54%
    14:00 +32°C° 0 mm 9 m/S 760 mmHg 54%
    15:00 +32°C° 0 mm 9 m/S 759 mmHg 54%
    16:00 +32°C° 0 mm 8 m/S 760 mmHg 57%
    17:00 +31°C° 0 mm 8 m/S 760 mmHg 61%
    18:00 +29°C° 0 mm 8 m/S 760 mmHg 65%
    19:00 +28°C° 0 mm 8 m/S 760 mmHg 68%
    20:00 +28°C° 0 mm 8 m/S 761 mmHg 72%
    21:00 +28°C° 0 mm 8 m/S 761 mmHg 75%
    22:00 +27°C° 0 mm 8 m/S 761 mmHg 76%
    23:00 +27°C° 0 mm 8 m/S 761 mmHg 78%

    22 Januar, Dienstag

    Zeit Temperatur Niederschläge Wind Luftdruck Luftfeuchtigkeit
    00:00 +27°C° 0 mm 8 m/S 761 mmHg 79%
    01:00 +27°C° 0 mm 8 m/S 760 mmHg 80%
    02:00 +27°C° 0 mm 8 m/S 760 mmHg 81%
    03:00 +27°C° 0 mm 8 m/S 760 mmHg 81%
    04:00 +26°C° 0 mm 7 m/S 760 mmHg 82%
    05:00 +26°C° 0 mm 7 m/S 760 mmHg 83%
    06:00 +26°C° 0 mm 7 m/S 761 mmHg 83%
    07:00 +27°C° 0 mm 8 m/S 761 mmHg 78%
    08:00 +28°C° 0 mm 8 m/S 762 mmHg 73%
    09:00 +29°C° 0 mm 9 m/S 762 mmHg 69%
    10:00 +31°C° 0 mm 9 m/S 761 mmHg 65%
    11:00 +31°C° 0 mm 9 m/S 761 mmHg 61%
    12:00 +32°C° 0 mm 9 m/S 760 mmHg 57%
    13:00 +32°C° 0 mm 9 m/S 759 mmHg 57%
    14:00 +32°C° 0 mm 9 m/S 759 mmHg 57%
    15:00 +32°C° 0 mm 9 m/S 758 mmHg 58%
    16:00 +31°C° 0 mm 9 m/S 758 mmHg 61%
    17:00 +29°C° 0 mm 9 m/S 758 mmHg 65%
    18:00 +28°C° 0 mm 8 m/S 758 mmHg 69%
    19:00 +28°C° 0 mm 8 m/S 759 mmHg 71%
    20:00 +28°C° 0 mm 8 m/S 759 mmHg 72%
    21:00 +27°C° 0 mm 9 m/S 760 mmHg 74%
    22:00 +27°C° 0 mm 9 m/S 760 mmHg 75%
    23:00 +27°C° 0 mm 9 m/S 759 mmHg 76%

    23 Januar, Mittwoch

    Zeit Temperatur Niederschläge Wind Luftdruck Luftfeuchtigkeit
    00:00 +27°C° 0 mm 9 m/S 759 mmHg 77%
    01:00 +27°C° 0 mm 9 m/S 759 mmHg 79%
    02:00 +26°C° 0 mm 8 m/S 759 mmHg 80%
    03:00 +26°C° 0 mm 8 m/S 758 mmHg 81%
    04:00 +26°C° 0 mm 8 m/S 759 mmHg 81%
    05:00 +26°C° 0 mm 8 m/S 759 mmHg 81%
    06:00 +26°C° 0 mm 8 m/S 760 mmHg 81%
    07:00 +27°C° 0 mm 9 m/S 760 mmHg 77%
    08:00 +28°C° 0 mm 9 m/S 761 mmHg 72%
    09:00 +28°C° 0 mm 9 m/S 761 mmHg 68%
    10:00 +29°C° 0 mm 9 m/S 761 mmHg 64%
    11:00 +31°C° 0 mm 10 m/S 760 mmHg 61%
    12:00 +32°C° 0 mm 10 m/S 760 mmHg 57%
    13:00 +32°C° 0 mm 10 m/S 759 mmHg 57%
    14:00 +32°C° 0 mm 10 m/S 758 mmHg 57%
    15:00 +31°C° 0 mm 10 m/S 758 mmHg 57%
    16:00 +31°C° 0 mm 9 m/S 758 mmHg 60%
    17:00 +29°C° 0 mm 9 m/S 758 mmHg 62%
    18:00 +28°C° 0 mm 9 m/S 758 mmHg 65%
    19:00 +28°C° 0 mm 9 m/S 759 mmHg 68%
    20:00 +27°C° 0 mm 9 m/S 759 mmHg 70%
    21:00 +27°C° 0 mm 9 m/S 760 mmHg 72%
    22:00 +27°C° 0 mm 9 m/S 759 mmHg 74%
    23:00 +27°C° 0 mm 9 m/S 759 mmHg 75%
    Mehr zeigen